[TLELIST] Archives

 

[list_settings.list_name] Current TLEs

November 17th 2022 PST

HST 1 20580U 90037B 22320.23389925 .00002680 00000-0 14461-3 0 9999 2 20580 28.4697 242.6445 0002403 233.8138 253.5193 15.11269363589194 ISS (ZARYA) 1 25544U 98067A 22321.40382671 .00009716 00000-0 17758-3 0 9995 2 25544 51.6439 297.5757 0006981 83.7194 79.4743 15.50057411368941 CXO 1 25867U 99040B 22324.06329821 .00000832 00000-0 00000+0 0 9996 2 25867 41.1882 221.4057 8961595 243.2032 0.0067 0.37818145 23548 ____________________________________________________________________ These 2-Line ...Continue Reading

[list_settings.list_name] Current TLEs

November 16th 2022 PST

HST 1 20580U 90037B 22320.16955606 .00002654 00000-0 14306-3 0 9995 2 20580 28.4697 243.0713 0002405 233.0466 263.5275 15.11268896589456 ISS (ZARYA) 1 25544U 98067A 22320.23230743 .00010091 00000-0 18427-3 0 9999 2 25544 51.6437 303.3799 0006892 79.2314 22.3764 15.50034796368767 CXO 1 25867U 99040B 22321.41787975 .00000854 00000-0 00000-0 0 9995 2 25867 41.2746 221.7412 8962085 242.9575 359.8819 0.37815644 12379 ____________________________________________________________________ These 2-Line ...Continue Reading

[list_settings.list_name] Current TLEs

November 15th 2022 PST

HST 1 20580U 90037B 22318.52350199 .00003168 00000-0 17289-3 0 9992 2 20580 28.4700 253.9900 0002457 214.2928 309.0540 15.11260770589207 ISS (ZARYA) 1 25544U 98067A 22319.40286874 .00010387 00000-0 18953-3 0 9994 2 25544 51.6435 307.4893 0006911 75.7428 74.4644 15.50018489368636 CXO 1 25867U 99040B 22321.41787975 .00000854 00000-0 00000-0 0 9995 2 25867 41.2746 221.7412 8962085 242.9575 359.8819 0.37815644 12379 ____________________________________________________________________ These 2-Line ...Continue Reading

[list_settings.list_name] Current TLEs

November 14th 2022 PST

HST 1 20580U 90037B 22317.60170608 .00003340 00000-0 18292-3 0 9992 2 20580 28.4701 260.1044 0002494 203.9005 334.4316 15.11255289588794 ISS (ZARYA) 1 25544U 98067A 22318.37002956 .00010505 00000-0 19173-3 0 9993 2 25544 51.6435 312.6048 0007010 71.6361 71.4965 15.49996816368470 CXO 1 25867U 99040B 22318.77312662 .00000800 00000-0 00000-0 0 9998 2 25867 41.3507 222.0405 8960708 242.7321 359.8770 0.37810465 12369 ____________________________________________________________________ These 2-Line ...Continue Reading

[list_settings.list_name] Current TLEs

November 13th 2022 PST

HST 1 20580U 90037B 22316.61025635 .00003378 00000-0 18514-3 0 9999 2 20580 28.4704 266.6810 0002524 192.6036 341.0281 15.11248861588648 ISS (ZARYA) 1 25544U 98067A 22317.37139519 .00010626 00000-0 19399-3 0 9992 2 25544 51.6436 317.5532 0006956 68.8389 258.2832 15.49975273368314 CXO 1 25867U 99040B 22318.77312662 .00000800 00000-0 00000-0 0 9998 2 25867 41.3507 222.0405 8960708 242.7321 359.8770 0.37810465 12369 ____________________________________________________________________ These 2-Line ...Continue Reading

[list_settings.list_name] Current TLEs

November 12th 2022 PST

HST 1 20580U 90037B 22316.20587332 .00003649 00000-0 20087-3 0 9990 2 20580 28.4705 269.3632 0002555 187.8661 301.3557 15.11246887588859 ISS (ZARYA) 1 25544U 98067A 22316.36202524 .00012241 00000-0 22234-3 0 9994 2 25544 51.6435 322.5532 0006836 64.7653 26.4933 15.49958420368160 CXO 1 25867U 99040B 22318.77312662 .00000800 00000-0 00000+0 0 9997 2 25867 41.3507 222.0405 8960708 242.7321 359.8770 0.37810465 23529 ____________________________________________________________________ These 2-Line ...Continue Reading

[list_settings.list_name] Current TLEs

November 11th 2022 PST

HST 1 20580U 90037B 22315.19641074 .00003288 00000-0 17994-3 0 9993 2 20580 28.4706 276.0586 0002605 177.1558 209.2056 15.11238951588691 ISS (ZARYA) 1 25544U 98067A 22315.39284736 .00014043 00000-0 25399-3 0 9998 2 25544 51.6439 327.3552 0006927 60.3945 19.4853 15.49940881368015 CXO 1 25867U 99040B 22316.12826532 .00000704 00000-0 00000+0 0 9993 2 25867 41.4110 222.2957 8958661 242.5402 359.8583 0.37808384 23515 ____________________________________________________________________ These 2-Line ...Continue Reading

[list_settings.list_name] Current TLEs

November 10th 2022 PST

HST 1 20580U 90037B 22313.63658476 .00004297 00000-0 23850-3 0 9993 2 20580 28.4707 286.4044 0002668 160.8552 2.5140 15.11229159588191 ISS (ZARYA) 1 25544U 98067A 22314.23520183 .00014239 00000-0 25772-3 0 9991 2 25544 51.6439 333.0896 0006729 55.8934 40.3768 15.49908259367837 CXO 1 25867U 99040B 22316.12796507 .00000704 00000-0 00000-0 0 9992 2 25867 41.4139 222.3011 8958650 242.5350 359.8169 0.37808836 12350 ____________________________________________________________________ These 2-Line ...Continue Reading

[list_settings.list_name] Current TLEs

November 9th 2022 PST

HST 1 20580U 90037B 22312.64598753 .00004006 00000-0 22168-3 0 9993 2 20580 28.4707 292.9748 0002711 150.7369 12.6764 15.11219884588049 ISS (ZARYA) 1 25544U 98067A 22313.41495370 .00013307 00000-0 24164-3 0 9998 2 25544 51.6442 337.1529 0006568 52.9032 143.6574 15.49880371367709 CXO 1 25867U 99040B 22316.12746467 .00000703 00000-0 00000+0 0 9990 2 25867 41.4141 222.3012 8958641 242.5349 359.7486 0.37809387 23515 ____________________________________________________________________ These 2-Line ...Continue Reading

[list_settings.list_name] Current TLEs

November 8th 2022 PST

HST 1 20580U 90037B 22312.28959985 .00003406 00000-0 18693-3 0 9992 2 20580 28.4707 295.3386 0002739 147.1009 233.5752 15.11215610588252 ISS (ZARYA) 1 25544U 98067A 22312.43688697 .00013106 00000-0 23836-3 0 9997 2 25544 51.6454 341.9954 0006509 49.8920 85.9181 15.49852610367553 CXO 1 25867U 99040B 22313.48295589 .00000610 00000-0 00000+0 0 9997 2 25867 41.4763 222.5607 8956087 242.3385 359.7721 0.37809597 23501 ____________________________________________________________________ These 2-Line ...Continue Reading
  • This mailing list is a public mailing list - anyone may join or leave, at any time.
  • This mailing list is announce-only.

International Space Station (ISS) / Hubble Space Telescope (HST) / Chandra X-Ray Observatory Orbital Data via EMAIL

Privacy Policy:

Private list